INTELSAT 19 (IS-19)

Last updated on Nov. 18, 2019, 4:21 a.m. UTC

1 38356U 12030A   19321.19010274 -.00000048  00000-0  00000+0 0  9993
2 38356   0.0090 324.7176 0003138 276.1441  49.5578  1.00271435 27400
UTC
Height (km)
Latitude
Longitude
Inclination
Orbital Period
UTC large
Height (km)
Speed (km/s)
/
Latitude / Longitude
Inclination (degrees)
Orbital Period (minutes)
Azimuth
Elevation
Range (km)
Doppler Factor
iOS Compass Heading
iOS Angle

Next 30 passes for location: Hong Kong

Rise time Rise Azimuth (degrees) Set time Set Azimuth (degrees) Duration Max altitude (degrees)

No matching passes for this satellites